Weather History for Fort Lauderdale, FL

Change the Weather History Date:

Monday, November 26, 2012

  Actual Average Record
Temperature  
Mean Temperature 68 °F -  
Max Temperature 79 °F 80 °F 86 °F (1967)
Min Temperature 57 °F 64 °F 39 °F (1949)
Cooling Degree Days 3    
Growing Degree Days 18 (Base 50)    
Moisture  
Dew Point 59 °F    
Average Humidity 70    
Maximum Humidity 93    
Minimum Humidity 50    
Precipitation  
Precipitation 0.00 in - - ()
Sea Level Pressure  
Sea Level Pressure 30.17 in    
Wind  
Wind Speed 3 mph (ESE)    
Max Wind Speed 12 mph    
Max Gust Speed -    
Visibility 10 miles    
Events      
Averages and records for this station are not official NWS values.
T = Trace of Precipitation, MM = Missing Value Source: NWS Daily Summary

Daily Weather History Graph

Daily Weather History Graph

Search for Another Location

Airport:

Trip Planner

Search our weather history database for the weather conditions in past years. The results will help you decide how hot, cold, wet, or windy it might be!

Date:

Astronomy

Nov. 26, 2012 Rise Set
Actual Time 6:47 AM EST 5:28 PM EST
Civil Twilight 6:22 AM EST 5:53 PM EST
Nautical Twilight 5:54 AM EST 6:21 PM EST
Astronomical Twilight 5:26 AM EST 6:49 PM EST
Moon 4:15 PM EST (11/26) 5:02 AM EST (11/26)
Length of Visible Light 11h 30m
Length of Day
10h 40m
Waxing Gibbous, 97% of the Moon is Illuminated
Nov 26
Waxing Gibbous
Nov 28
Full
Dec 6
Last Quarter
Dec 13
New
Dec 20
First Quarter

Hourly Weather History & Observations

Time (EST) Temp. Dew Point Humidity Pressure Visibility Wind Dir Wind Speed Gust Speed Precip Events Conditions
12:53 AM 59.0 °F 54.0 °F 83% 30.13 in 10.0 mi Calm Calm - N/A   Clear
1:53 AM 57.9 °F 55.0 °F 90% 30.13 in 10.0 mi Calm Calm - N/A   Mostly Cloudy
2:53 AM 61.0 °F 55.9 °F 83% 30.12 in 10.0 mi Calm Calm - N/A   Mostly Cloudy
3:53 AM 63.0 °F 57.0 °F 81% 30.12 in 10.0 mi NNW 3.5 mph - N/A   Mostly Cloudy
4:53 AM 61.0 °F 57.0 °F 87% 30.13 in 10.0 mi Calm Calm - N/A   Mostly Cloudy
5:53 AM 61.0 °F 57.0 °F 87% 30.14 in 10.0 mi Calm Calm - N/A   Mostly Cloudy
6:53 AM 60.1 °F 57.9 °F 93% 30.16 in 10.0 mi Calm Calm - N/A   Clear
7:53 AM 61.0 °F 57.9 °F 90% 30.18 in 10.0 mi Calm Calm - N/A   Clear
8:53 AM 72.0 °F 60.1 °F 66% 30.19 in 10.0 mi Calm Calm - N/A   Scattered Clouds
9:53 AM 75.9 °F 61.0 °F 60% 30.21 in 10.0 mi Calm Calm - N/A   Mostly Cloudy
10:53 AM 75.9 °F 61.0 °F 60% 30.21 in 10.0 mi SE 4.6 mph - N/A   Scattered Clouds
11:53 AM 79.0 °F 62.1 °F 56% 30.20 in 10.0 mi SE 8.1 mph - N/A   Overcast
12:53 PM 79.0 °F 61.0 °F 54% 30.17 in 10.0 mi ESE 9.2 mph - N/A   Scattered Clouds
1:53 PM 79.0 °F 59.0 °F 50% 30.14 in 10.0 mi ESE 8.1 mph - N/A   Clear
2:53 PM 78.1 °F 59.0 °F 52% 30.14 in 10.0 mi East 10.4 mph - N/A   Partly Cloudy
3:53 PM 77.0 °F 57.9 °F 52% 30.14 in 10.0 mi SE 9.2 mph - N/A   Clear
4:53 PM 75.9 °F 59.0 °F 56% 30.15 in 10.0 mi East 11.5 mph - N/A   Clear
5:53 PM 73.0 °F 59.0 °F 61% 30.15 in 10.0 mi ESE 5.8 mph - N/A   Clear
6:53 PM 73.0 °F 60.1 °F 64% 30.17 in 10.0 mi ESE 5.8 mph - N/A   Partly Cloudy
7:53 PM 71.1 °F 60.1 °F 68% 30.19 in 10.0 mi ESE 6.9 mph - N/A   Clear
8:53 PM 72.0 °F 60.1 °F 66% 30.20 in 10.0 mi SE 4.6 mph - N/A   Clear
9:53 PM 71.1 °F 60.1 °F 68% 30.21 in 10.0 mi SE 3.5 mph - N/A   Partly Cloudy
10:53 PM 71.1 °F 61.0 °F 70% 30.20 in 10.0 mi SE 3.5 mph - N/A   Partly Cloudy
11:53 PM 69.1 °F 60.1 °F 73% 30.19 in 10.0 mi SE 3.5 mph - N/A   Partly Cloudy